| time (UTC) | temp C | wind direction | speed KPH | gust KPH | rain 1hr cm | rain 24hr cm | rain mn cm | humidity % | barometer mb |
| 20260906022828 | 18 | 5 | 0.0 | 3.2 | 0.00 | 0.00 | 0.00 | 77 | 1012.4 |
| 20260906022329 | 18 | 5 | 0.0 | 3.2 | 0.00 | 0.00 | 0.00 | 78 | 1012.3 |
| 20260906021850 | 18 | 5 | 1.6 | 4.8 | 0.00 | 0.00 | 0.00 | 77 | 1012.4 |
| 20260906021350 | 19 | 5 | 3.2 | 4.8 | 0.00 | 0.00 | 0.00 | 77 | 1012.3 |
| 20260906020829 | 19 | 355 | 1.6 | 4.8 | 0.00 | 0.00 | 0.00 | 77 | 1012.3 |
| 20260906020331 | 19 | 355 | 3.2 | 4.8 | 0.00 | 0.00 | 0.00 | 77 | 1012.2 |
| 20260906015852 | 19 | 355 | 3.2 | 4.8 | 0.00 | 0.00 | 0.00 | 77 | 1012.3 |
| 20260906015330 | 19 | 355 | 3.2 | 4.8 | 0.00 | 0.00 | 0.00 | 76 | 1012.2 |
| 20260906014831 | 19 | 32 | 3.2 | 4.8 | 0.00 | 0.00 | 0.00 | 76 | 1012.2 |
| 20260906014352 | 19 | 360 | 3.2 | 6.4 | 0.00 | 0.00 | 0.00 | 76 | 1012.0 |
| 20260906013831 | 19 | 360 | 4.8 | 6.4 | 0.00 | 0.00 | 0.00 | 75 | 1012.0 |
| 20260906013312 | 20 | 350 | 3.2 | 6.4 | 0.00 | 0.00 | 0.00 | 74 | 1012.0 |
| 20260906012834 | 20 | 360 | 3.2 | 4.8 | 0.00 | 0.00 | 0.00 | 74 | 1012.0 |
| 20260906012334 | 20 | 355 | 1.6 | 4.8 | 0.00 | 0.00 | 0.00 | 73 | 1011.9 |
| 20260906011813 | 20 | 47 | 1.6 | 4.8 | 0.00 | 0.00 | 0.00 | 71 | 1011.9 |
| 20260906011332 | 20 | 47 | 3.2 | 4.8 | 0.00 | 0.00 | 0.00 | 71 | 1011.9 |
| 20260906010852 | 20 | 47 | 1.6 | 3.2 | 0.00 | 0.00 | 0.00 | 69 | 1011.9 |
| 20260906010313 | 20 | 47 | 0.0 | 0.0 | 0.00 | 0.00 | 0.00 | 68 | 1011.9 |
| 20260906005813 | 20 | 47 | 0.0 | 0.0 | 0.00 | 0.00 | 0.00 | 66 | 1011.8 |
| 20260906005313 | 21 | 47 | 0.0 | 0.0 | 0.00 | 0.00 | 0.00 | 66 | 1011.7 |
| 20260906004833 | 21 | 47 | 0.0 | 0.0 | 0.00 | 0.00 | 0.00 | 65 | 1011.7 |
| 20260906004332 | 21 | 47 | 0.0 | 0.0 | 0.00 | 0.00 | 0.00 | 65 | 1011.6 |
| 20260906003848 | 21 | 47 | 0.0 | 1.6 | 0.00 | 0.00 | 0.00 | 65 | 1011.6 |
| 20260906003348 | 21 | 47 | 0.0 | 3.2 | 0.00 | 0.00 | 0.00 | 64 | 1011.5 |
| 20260906002828 | 21 | 47 | 1.6 | 4.8 | 0.00 | 0.00 | 0.00 | 64 | 1011.6 |
| 20260906002330 | 21 | 42 | 0.0 | 1.6 | 0.00 | 0.00 | 0.00 | 64 | 1011.4 |
| 20260906001851 | 21 | 42 | 0.0 | 3.2 | 0.00 | 0.00 | 0.00 | 63 | 1011.3 |
| 20260906001331 | 21 | 42 | 1.6 | 3.2 | 0.00 | 0.00 | 0.00 | 64 | 1011.4 |
| 20260906000812 | 22 | 42 | 0.0 | 3.2 | 0.00 | 0.00 | 0.00 | 63 | 1011.2 |
| 20260906000313 | 22 | 42 | 0.0 | 3.2 | 0.00 | 0.00 | 0.00 | 62 | 1011.1 |
| 20260905235834 | 22 | 42 | 1.6 | 3.2 | 0.00 | 0.00 | 0.00 | 62 | 1011.1 |
| 20260905235314 | 22 | 42 | 1.6 | 3.2 | 0.00 | 0.00 | 0.00 | 61 | 1011.1 |
| 20260905234815 | 22 | 30 | 1.6 | 4.8 | 0.00 | 0.00 | 0.00 | 61 | 1011.1 |
| 20260905234315 | 22 | 30 | 1.6 | 4.8 | 0.00 | 0.00 | 0.00 | 61 | 1011.0 |
| 20260905233815 | 23 | 19 | 1.6 | 4.8 | 0.00 | 0.00 | 0.00 | 61 | 1010.9 |
| 20260905233315 | 23 | 28 | 0.0 | 1.6 | 0.00 | 0.00 | 0.00 | 61 | 1010.9 |
| 20260905232814 | 23 | 28 | 0.0 | 3.2 | 0.00 | 0.00 | 0.00 | 60 | 1011.0 |
| 20260905232314 | 23 | 28 | 0.0 | 3.2 | 0.00 | 0.00 | 0.00 | 60 | 1010.9 |
| 20260905231816 | 23 | 28 | 0.0 | 4.8 | 0.00 | 0.00 | 0.00 | 60 | 1010.9 |
| 20260905231318 | 23 | 5 | 3.2 | 4.8 | 0.00 | 0.00 | 0.00 | 59 | 1010.8 |
| 20260905230818 | 23 | 9 | 3.2 | 6.4 | 0.00 | 0.00 | 0.00 | 60 | 1010.8 |
| 20260905230320 | 24 | 5 | 1.6 | 6.4 | 0.00 | 0.00 | 0.00 | 58 | 1010.8 |
| 20260905225820 | 24 | 26 | 1.6 | 9.7 | 0.00 | 0.00 | 0.00 | 58 | 1010.7 |
| 20260905225320 | 24 | 43 | 4.8 | 12.9 | 0.00 | 0.00 | 0.00 | 57 | 1010.5 |
| 20260905224840 | 24 | 33 | 4.8 | 12.9 | 0.00 | 0.00 | 0.00 | 56 | 1010.0 |
| 20260905224341 | 25 | 348 | 3.2 | 6.4 | 0.00 | 0.00 | 0.00 | 57 | 1009.8 |
| 20260905223818 | 25 | 17 | 1.6 | 6.4 | 0.00 | 0.00 | 0.00 | 57 | 1010.0 |
| 20260905223341 | 25 | 5 | 3.2 | 8.0 | 0.00 | 0.00 | 0.00 | 56 | 1010.4 |
| 20260905222821 | 25 | 22 | 3.2 | 17.7 | 0.00 | 0.00 | 0.00 | 56 | 1010.6 |
| 20260905222321 | 25 | 36 | 6.4 | 17.7 | 0.00 | 0.00 | 0.00 | 55 | 1010.5 |
| 20260905221821 | 25 | 32 | 8.0 | 16.1 | 0.00 | 0.00 | 0.00 | 55 | 1010.3 |
| 20260905221343 | 25 | 342 | 4.8 | 12.9 | 0.00 | 0.00 | 0.00 | 55 | 1010.2 |
| 20260905220825 | 25 | 5 | 4.8 | 9.7 | 0.00 | 0.00 | 0.00 | 55 | 1010.6 |
| 20260905220325 | 25 | 61 | 4.8 | 17.7 | 0.00 | 0.00 | 0.00 | 56 | 1011.5 |
| 20260905215844 | 25 | 20 | 6.4 | 14.5 | 0.00 | 0.00 | 0.00 | 55 | 1012.0 |
| 20260905215322 | 25 | 94 | 6.4 | 14.5 | 0.00 | 0.00 | 0.00 | 55 | 1011.3 |
| 20260905214842 | 25 | 5 | 6.4 | 16.1 | 0.00 | 0.00 | 0.00 | 54 | 1010.5 |
| 20260905214321 | 25 | 22 | 8.0 | 19.3 | 0.00 | 0.00 | 0.00 | 54 | 1010.2 |
| 20260905213823 | 26 | 14 | 3.2 | 16.1 | 0.00 | 0.00 | 0.00 | 55 | 1010.5 |
| 20260905213322 | 26 | 24 | 8.0 | 16.1 | 0.00 | 0.00 | 0.00 | 54 | 1010.8 |
| 20260905212842 | 26 | 40 | 8.0 | 14.5 | 0.00 | 0.00 | 0.00 | 55 | 1010.6 |
| 20260905212318 | 26 | 360 | 3.2 | 12.9 | 0.00 | 0.00 | 0.00 | 55 | 1010.3 |
| 20260905211818 | 26 | 355 | 4.8 | 19.3 | 0.00 | 0.00 | 0.00 | 55 | 1010.2 |
| 20260905211318 | 26 | 9 | 8.0 | 19.3 | 0.00 | 0.00 | 0.00 | 52 | 1010.2 |
| 20260905210838 | 26 | 346 | 4.8 | 17.7 | 0.00 | 0.00 | 0.00 | 55 | 1010.1 |
| 20260905210318 | 26 | 58 | 9.7 | 17.7 | 0.00 | 0.00 | 0.00 | 53 | 1010.2 |
| 20260905205816 | 26 | 11 | 8.0 | 17.7 | 0.00 | 0.00 | 0.00 | 55 | 1010.2 |
| 20260905205335 | 26 | 30 | 6.4 | 14.5 | 0.00 | 0.00 | 0.00 | 52 | 1010.3 |
| 20260905204813 | 26 | 11 | 6.4 | 14.5 | 0.00 | 0.00 | 0.00 | 54 | 1010.3 |
| 20260905204313 | 26 | 360 | 1.6 | 12.9 | 0.00 | 0.00 | 0.00 | 55 | 1010.3 |
| 20260905203814 | 26 | 360 | 1.6 | 8.0 | 0.00 | 0.00 | 0.00 | 55 | 1010.3 |
| 20260905203330 | 26 | 13 | 3.2 | 16.1 | 0.00 | 0.00 | 0.00 | 55 | 1010.4 |
| 20260905202831 | 26 | 102 | 6.4 | 16.1 | 0.00 | 0.00 | 0.00 | 54 | 1010.4 |
| 20260905202313 | 26 | 5 | 6.4 | 14.5 | 0.00 | 0.00 | 0.00 | 54 | 1010.4 |
| 20260905201813 | 26 | 36 | 6.4 | 24.1 | 0.00 | 0.00 | 0.00 | 56 | 1010.4 |
| 20260905201313 | 26 | 16 | 6.4 | 24.1 | 0.00 | 0.00 | 0.00 | 56 | 1010.5 |
| 20260905200833 | 26 | 92 | 6.4 | 20.9 | 0.00 | 0.00 | 0.00 | 56 | 1010.5 |
| 20260905200330 | 26 | 13 | 8.0 | 16.1 | 0.00 | 0.00 | 0.00 | 57 | 1010.5 |
| 20260905195830 | 26 | 355 | 6.4 | 14.5 | 0.00 | 0.00 | 0.00 | 57 | 1010.5 |
| 20260905195330 | 26 | 343 | 3.2 | 17.7 | 0.00 | 0.00 | 0.00 | 53 | 1010.5 |
| 20260905194831 | 26 | 355 | 6.4 | 19.3 | 0.00 | 0.00 | 0.00 | 55 | 1010.6 |
| 20260905194312 | 26 | 40 | 14.5 | 19.3 | 0.00 | 0.00 | 0.00 | 55 | 1010.6 |
| 20260905193832 | 26 | 62 | 4.8 | 14.5 | 0.00 | 0.00 | 0.00 | 58 | 1010.6 |
| 20260905193331 | 26 | 355 | 4.8 | 16.1 | 0.00 | 0.00 | 0.00 | 56 | 1010.6 |
| 20260905192813 | 26 | 316 | 8.0 | 16.1 | 0.00 | 0.00 | 0.00 | 57 | 1010.6 |
| 20260905192332 | 26 | 24 | 6.4 | 25.7 | 0.00 | 0.00 | 0.00 | 58 | 1010.6 |
| 20260905191831 | 26 | 36 | 12.9 | 25.7 | 0.00 | 0.00 | 0.00 | 56 | 1010.6 |
| 20260905191330 | 25 | 351 | 6.4 | 17.7 | 0.00 | 0.00 | 0.00 | 61 | 1010.5 |
| 20260905190830 | 25 | 26 | 11.3 | 19.3 | 0.00 | 0.00 | 0.00 | 58 | 1010.6 |
| 20260905190353 | 25 | 351 | 9.7 | 20.9 | 0.00 | 0.00 | 0.00 | 58 | 1010.6 |
| 20260905185813 | 25 | 335 | 6.4 | 22.5 | 0.00 | 0.00 | 0.00 | 59 | 1010.7 |
| 20260905185313 | 25 | 360 | 11.3 | 24.1 | 0.00 | 0.00 | 0.00 | 60 | 1010.7 |
| 20260905184813 | 25 | 355 | 11.3 | 24.1 | 0.00 | 0.00 | 0.00 | 57 | 1010.8 |
| 20260905184333 | 25 | 20 | 8.0 | 22.5 | 0.00 | 0.00 | 0.00 | 59 | 1010.9 |
| 20260905183852 | 25 | 360 | 11.3 | 22.5 | 0.00 | 0.00 | 0.00 | 58 | 1010.8 |
| 20260905183312 | 25 | 36 | 11.3 | 22.5 | 0.00 | 0.00 | 0.00 | 58 | 1010.9 |
| 20260905182812 | 25 | 5 | 9.7 | 22.5 | 0.00 | 0.00 | 0.00 | 59 | 1010.9 |
| 20260905182335 | 25 | 14 | 3.2 | 17.7 | 0.00 | 0.00 | 0.00 | 61 | 1010.9 |
| 20260905181814 | 25 | 5 | 8.0 | 19.3 | 0.00 | 0.00 | 0.00 | 59 | 1011.0 |
| 20260905181335 | 25 | 81 | 9.7 | 19.3 | 0.00 | 0.00 | 0.00 | 60 | 1011.2 |
| 20260905180835 | 25 | 57 | 4.8 | 19.3 | 0.00 | 0.00 | 0.00 | 59 | 1011.1 |
| 20260905180316 | 25 | 5 | 9.7 | 19.3 | 0.00 | 0.00 | 0.00 | 59 | 1011.2 |
| 20260905175816 | 25 | 53 | 9.7 | 19.3 | 0.00 | 0.00 | 0.00 | 59 | 1011.2 |
| 20260905175315 | 25 | 72 | 3.2 | 20.9 | 0.00 | 0.00 | 0.00 | 61 | 1011.2 |
| 20260905174814 | 25 | 23 | 12.9 | 20.9 | 0.00 | 0.00 | 0.00 | 60 | 1011.2 |
| 20260905174314 | 25 | 355 | 8.0 | 12.9 | 0.00 | 0.00 | 0.00 | 59 | 1011.2 |
| 20260905173813 | 25 | 26 | 4.8 | 9.7 | 0.00 | 0.00 | 0.00 | 59 | 1011.2 |
| 20260905173314 | 25 | 10 | 4.8 | 17.7 | 0.00 | 0.00 | 0.00 | 59 | 1011.1 |
| 20260905172837 | 25 | 28 | 8.0 | 19.3 | 0.00 | 0.00 | 0.00 | 59 | 1011.2 |
| 20260905172335 | 25 | 355 | 4.8 | 19.3 | 0.00 | 0.00 | 0.00 | 60 | 1011.3 |
| 20260905171816 | 25 | 34 | 6.4 | 16.1 | 0.00 | 0.00 | 0.00 | 60 | 1011.3 |
| 20260905171317 | 25 | 360 | 6.4 | 16.1 | 0.00 | 0.00 | 0.00 | 57 | 1011.5 |
| 20260905170816 | 25 | 299 | 6.4 | 17.7 | 0.00 | 0.00 | 0.00 | 62 | 1011.7 |
| 20260905170317 | 25 | 355 | 8.0 | 19.3 | 0.00 | 0.00 | 0.00 | 58 | 1011.7 |
| 20260905165815 | 25 | 355 | 8.0 | 19.3 | 0.00 | 0.00 | 0.00 | 62 | 1011.7 |
| 20260905165315 | 25 | 15 | 9.7 | 20.9 | 0.00 | 0.00 | 0.00 | 60 | 1011.7 |
| 20260905164815 | 25 | 302 | 4.8 | 17.7 | 0.00 | 0.00 | 0.00 | 62 | 1011.7 |
| 20260905164335 | 25 | 306 | 6.4 | 17.7 | 0.00 | 0.00 | 0.00 | 61 | 1011.8 |
| 20260905163835 | 25 | 334 | 6.4 | 12.9 | 0.00 | 0.00 | 0.00 | 63 | 1011.8 |
| 20260905163313 | 25 | 360 | 6.4 | 12.9 | 0.00 | 0.00 | 0.00 | 61 | 1011.8 |
| 20260905162831 | 25 | 338 | 4.8 | 12.9 | 0.00 | 0.00 | 0.00 | 62 | 1011.9 |
| 20260905162312 | 25 | 5 | 4.8 | 17.7 | 0.00 | 0.00 | 0.00 | 62 | 1011.9 |
| 20260905161813 | 25 | 355 | 6.4 | 12.9 | 0.00 | 0.00 | 0.00 | 62 | 1012.0 |
| 20260905161313 | 25 | 337 | 4.8 | 9.7 | 0.00 | 0.00 | 0.00 | 66 | 1012.1 |
| 20260905160814 | 24 | 304 | 4.8 | 12.9 | 0.00 | 0.00 | 0.00 | 66 | 1012.1 |
| 20260905160314 | 24 | 355 | 4.8 | 16.1 | 0.00 | 0.00 | 0.00 | 62 | 1012.1 |
| 20260905155814 | 24 | 22 | 8.0 | 22.5 | 0.00 | 0.00 | 0.00 | 60 | 1012.2 |
| 20260905155314 | 24 | 327 | 12.9 | 22.5 | 0.00 | 0.00 | 0.00 | 60 | 1012.2 |
| 20260905154815 | 24 | 5 | 6.4 | 22.5 | 0.00 | 0.00 | 0.00 | 62 | 1012.2 |
| 20260905154314 | 24 | 360 | 9.7 | 22.5 | 0.00 | 0.00 | 0.00 | 60 | 1012.2 |
| 20260905153814 | 24 | 348 | 6.4 | 19.3 | 0.00 | 0.00 | 0.00 | 64 | 1012.2 |
| 20260905153314 | 24 | 343 | 4.8 | 12.9 | 0.00 | 0.00 | 0.00 | 65 | 1012.2 |
| 20260905152815 | 23 | 351 | 4.8 | 14.5 | 0.00 | 0.00 | 0.00 | 65 | 1012.2 |
| 20260905152316 | 24 | 11 | 3.2 | 9.7 | 0.00 | 0.00 | 0.00 | 65 | 1012.2 |
| 20260905151816 | 24 | 355 | 8.0 | 16.1 | 0.00 | 0.00 | 0.00 | 64 | 1012.3 |
| 20260905151317 | 24 | 16 | 8.0 | 16.1 | 0.00 | 0.00 | 0.00 | 65 | 1012.2 |
| 20260905150817 | 24 | 290 | 4.8 | 17.7 | 0.00 | 0.00 | 0.00 | 66 | 1012.2 |
| 20260905150319 | 23 | 348 | 8.0 | 17.7 | 0.00 | 0.00 | 0.00 | 65 | 1012.3 |
| 20260905145819 | 23 | 334 | 8.0 | 19.3 | 0.00 | 0.00 | 0.00 | 66 | 1012.3 |
| 20260905145338 | 24 | 355 | 6.4 | 12.9 | 0.00 | 0.00 | 0.00 | 65 | 1012.2 |
| 20260905144817 | 23 | 351 | 8.0 | 16.1 | 0.00 | 0.00 | 0.00 | 66 | 1012.1 |
| 20260905144315 | 24 | 284 | 4.8 | 12.9 | 0.00 | 0.00 | 0.00 | 66 | 1012.1 |
| 20260905143817 | 24 | 360 | 4.8 | 16.1 | 0.00 | 0.00 | 0.00 | 68 | 1012.2 |
| 20260905143316 | 23 | 40 | 4.8 | 17.7 | 0.00 | 0.00 | 0.00 | 67 | 1012.1 |
| 20260905142818 | 23 | 39 | 6.4 | 17.7 | 0.00 | 0.00 | 0.00 | 66 | 1012.0 |
| 20260905142321 | 23 | 40 | 11.3 | 17.7 | 0.00 | 0.00 | 0.00 | 66 | 1011.9 |
| 20260905141821 | 23 | 5 | 6.4 | 11.3 | 0.00 | 0.00 | 0.00 | 68 | 1011.8 |
| 20260905141323 | 23 | 5 | 4.8 | 9.7 | 0.00 | 0.00 | 0.00 | 69 | 1011.8 |
| 20260905140844 | 23 | 348 | 6.4 | 9.7 | 0.00 | 0.00 | 0.00 | 68 | 1011.7 |
| 20260905140322 | 23 | 15 | 3.2 | 8.0 | 0.00 | 0.00 | 0.00 | 70 | 1011.7 |
| 20260905135838 | 23 | 63 | 3.2 | 8.0 | 0.00 | 0.00 | 0.00 | 70 | 1011.7 |
| 20260905135332 | 23 | 329 | 4.8 | 8.0 | 0.00 | 0.00 | 0.00 | 71 | 1011.7 |
| 20260905134832 | 23 | 360 | 3.2 | 8.0 | 0.00 | 0.00 | 0.00 | 73 | 1011.8 |
| 20260905134353 | 22 | 56 | 4.8 | 8.0 | 0.00 | 0.00 | 0.00 | 72 | 1011.8 |
| 20260905133851 | 22 | 19 | 3.2 | 14.5 | 0.00 | 0.00 | 0.00 | 72 | 1011.8 |
| 20260905133351 | 22 | 355 | 6.4 | 14.5 | 0.00 | 0.00 | 0.00 | 72 | 1012.1 |
| 20260905132851 | 22 | 28 | 4.8 | 9.7 | 0.00 | 0.00 | 0.00 | 73 | 1012.0 |
| 20260905132351 | 22 | 40 | 4.8 | 12.9 | 0.00 | 0.00 | 0.00 | 72 | 1012.0 |
| 20260905131829 | 22 | 311 | 6.4 | 12.9 | 0.00 | 0.00 | 0.00 | 72 | 1012.0 |
| 20260905131330 | 22 | 5 | 3.2 | 9.7 | 0.00 | 0.00 | 0.00 | 73 | 1012.1 |
| 20260905130831 | 22 | 12 | 6.4 | 9.7 | 0.00 | 0.00 | 0.00 | 73 | 1012.1 |
| 20260905130313 | 22 | 17 | 4.8 | 9.7 | 0.00 | 0.00 | 0.00 | 73 | 1012.0 |
| 20260905125813 | 22 | 30 | 4.8 | 9.7 | 0.00 | 0.00 | 0.00 | 72 | 1012.0 |
| 20260905125314 | 22 | 57 | 4.8 | 9.7 | 0.00 | 0.00 | 0.00 | 73 | 1012.0 |
| 20260905124815 | 22 | 29 | 4.8 | 9.7 | 0.00 | 0.00 | 0.00 | 74 | 1011.9 |
| 20260905124315 | 22 | 10 | 3.2 | 8.0 | 0.00 | 0.00 | 0.00 | 73 | 1011.8 |
| 20260905123814 | 22 | 53 | 1.6 | 12.9 | 0.00 | 0.00 | 0.00 | 74 | 1011.7 |
| 20260905123316 | 22 | 328 | 6.4 | 12.9 | 0.00 | 0.00 | 0.00 | 74 | 1011.7 |
| 20260905122817 | 22 | 330 | 4.8 | 14.5 | 0.00 | 0.00 | 0.00 | 74 | 1011.7 |
| 20260905122318 | 22 | 128 | 3.2 | 6.4 | 0.00 | 0.00 | 0.00 | 76 | 1011.6 |
| 20260905121820 | 22 | 355 | 3.2 | 4.8 | 0.00 | 0.00 | 0.00 | 76 | 1011.7 |
| 20260905121342 | 22 | 61 | 1.6 | 4.8 | 0.00 | 0.00 | 0.00 | 75 | 1011.7 |
| 20260905120821 | 22 | 44 | 1.6 | 4.8 | 0.00 | 0.00 | 0.00 | 76 | 1011.7 |
| 20260905120321 | 22 | 218 | 1.6 | 8.0 | 0.00 | 0.00 | 0.00 | 75 | 1011.7 |
| 20260905115819 | 22 | 17 | 3.2 | 8.0 | 0.00 | 0.00 | 0.00 | 75 | 1011.8 |
| 20260905115320 | 22 | 46 | 1.6 | 6.4 | 0.00 | 0.00 | 0.00 | 76 | 1011.6 |
| 20260905114822 | 22 | 360 | 1.6 | 6.4 | 0.00 | 0.00 | 0.00 | 76 | 1011.7 |
| 20260905114322 | 22 | 36 | 1.6 | 4.8 | 0.00 | 0.00 | 0.00 | 76 | 1011.7 |
| 20260905113825 | 21 | 48 | 0.0 | 4.8 | 0.00 | 0.00 | 0.00 | 77 | 1011.6 |
| 20260905113325 | 21 | 18 | 1.6 | 4.8 | 0.00 | 0.00 | 0.00 | 77 | 1011.5 |
| 20260905112827 | 21 | 52 | 0.0 | 4.8 | 0.00 | 0.00 | 0.00 | 77 | 1011.3 |
| 20260905112328 | 21 | 52 | 1.6 | 4.8 | 0.00 | 0.00 | 0.00 | 77 | 1011.4 |
| 20260905111829 | 21 | 17 | 0.0 | 3.2 | 0.00 | 0.00 | 0.00 | 77 | 1011.3 |
| 20260905111331 | 21 | 23 | 0.0 | 4.8 | 0.00 | 0.00 | 0.00 | 77 | 1011.3 |
| 20260905110830 | 21 | 53 | 0.0 | 3.2 | 0.00 | 0.00 | 0.00 | 77 | 1011.3 |
| 20260905110328 | 21 | 24 | 0.0 | 3.2 | 0.00 | 0.00 | 0.00 | 77 | 1011.3 |
| 20260905105829 | 21 | 23 | 0.0 | 3.2 | 0.00 | 0.00 | 0.00 | 77 | 1011.3 |
| 20260905105329 | 21 | 24 | 0.0 | 0.0 | 0.00 | 0.00 | 0.00 | 77 | 1011.3 |
| 20260905104827 | 21 | 24 | 0.0 | 0.0 | 0.00 | 0.00 | 0.00 | 77 | 1011.2 |
| 20260905104327 | 21 | 24 | 0.0 | 0.0 | 0.00 | 0.00 | 0.00 | 77 | 1011.1 |
| 20260905103825 | 21 | 24 | 0.0 | 0.0 | 0.00 | 0.00 | 0.00 | 77 | 1011.1 |
| 20260905103327 | 21 | 24 | 0.0 | 4.8 | 0.00 | 0.00 | 0.00 | 76 | 1011.0 |
| 20260905102828 | 21 | 23 | 0.0 | 4.8 | 0.00 | 0.00 | 0.00 | 76 | 1010.8 |
| 20260905102347 | 21 | 60 | 0.0 | 0.0 | 0.00 | 0.00 | 0.00 | 76 | 1010.8 |
| 20260905101828 | 22 | 60 | 0.0 | 4.8 | 0.00 | 0.00 | 0.00 | 76 | 1010.8 |
| 20260905101329 | 22 | 60 | 1.6 | 4.8 | 0.00 | 0.00 | 0.00 | 76 | 1010.8 |
| 20260905100828 | 22 | 60 | 0.0 | 1.6 | 0.00 | 0.00 | 0.00 | 76 | 1010.8 |
| 20260905100330 | 22 | 60 | 0.0 | 3.2 | 0.00 | 0.00 | 0.00 | 76 | 1010.6 |
| 20260905095829 | 22 | 60 | 0.0 | 3.2 | 0.00 | 0.00 | 0.00 | 76 | 1010.6 |
| 20260905095330 | 22 | 60 | 0.0 | 3.2 | 0.00 | 0.00 | 0.00 | 75 | 1010.6 |
| 20260905094812 | 22 | 60 | 0.0 | 0.0 | 0.00 | 0.00 | 0.00 | 75 | 1010.6 |
| 20260905094331 | 22 | 60 | 0.0 | 1.6 | 0.00 | 0.00 | 0.00 | 75 | 1010.7 |
| 20260905093834 | 22 | 60 | 0.0 | 3.2 | 0.00 | 0.00 | 0.00 | 75 | 1010.6 |
| 20260905093313 | 22 | 60 | 0.0 | 3.2 | 0.00 | 0.00 | 0.00 | 75 | 1010.7 |
| 20260905092834 | 22 | 60 | 0.0 | 4.8 | 0.00 | 0.00 | 0.00 | 74 | 1010.6 |
| 20260905092313 | 22 | 60 | 1.6 | 4.8 | 0.00 | 0.00 | 0.00 | 74 | 1010.5 |
| 20260905091814 | 22 | 26 | 3.2 | 6.4 | 0.00 | 0.00 | 0.00 | 75 | 1010.5 |
| 20260905091314 | 22 | 23 | 3.2 | 8.0 | 0.00 | 0.00 | 0.00 | 75 | 1010.4 |
| 20260905090816 | 22 | 67 | 3.2 | 8.0 | 0.00 | 0.00 | 0.00 | 75 | 1010.5 |
| 20260905090317 | 22 | 86 | 0.0 | 3.2 | 0.00 | 0.00 | 0.00 | 75 | 1010.4 |
| 20260905085840 | 22 | 30 | 0.0 | 3.2 | 0.00 | 0.00 | 0.00 | 75 | 1010.4 |
| 20260905085319 | 22 | 61 | 0.0 | 4.8 | 0.00 | 0.00 | 0.00 | 75 | 1010.4 |
| 20260905084820 | 22 | 86 | 0.0 | 3.2 | 0.00 | 0.00 | 0.00 | 75 | 1010.5 |
| 20260905084341 | 22 | 86 | 1.6 | 3.2 | 0.00 | 0.00 | 0.00 | 75 | 1010.4 |
| 20260905083821 | 22 | 26 | 0.0 | 8.0 | 0.00 | 0.00 | 0.00 | 75 | 1010.4 |
| 20260905083321 | 22 | 331 | 4.8 | 8.0 | 0.00 | 0.00 | 0.00 | 74 | 1010.4 |
| 20260905082839 | 22 | 44 | 3.2 | 8.0 | 0.00 | 0.00 | 0.00 | 74 | 1010.3 |
| 20260905082337 | 22 | 36 | 3.2 | 12.9 | 0.00 | 0.00 | 0.00 | 74 | 1010.4 |
| 20260905081836 | 22 | 37 | 3.2 | 12.9 | 0.00 | 0.00 | 0.00 | 74 | 1010.5 |
| 20260905081318 | 22 | 82 | 4.8 | 9.7 | 0.00 | 0.00 | 0.00 | 74 | 1010.6 |
| 20260905080817 | 22 | 9 | 4.8 | 8.0 | 0.00 | 0.00 | 0.00 | 74 | 1010.7 |
| 20260905080319 | 22 | 351 | 4.8 | 8.0 | 0.00 | 0.00 | 0.00 | 74 | 1010.6 |
| 20260905075820 | 22 | 18 | 1.6 | 4.8 | 0.00 | 0.00 | 0.00 | 74 | 1010.6 |
| 20260905075322 | 22 | 17 | 1.6 | 4.8 | 0.00 | 0.00 | 0.00 | 74 | 1010.6 |
| 20260905074823 | 22 | 5 | 0.0 | 8.0 | 0.00 | 0.00 | 0.00 | 75 | 1010.7 |
| 20260905073815 | 23 | 360 | 0.0 | 6.4 | 0.00 | 0.00 | 0.00 | 76 | 1010.7 |
| 20260905073316 | 23 | 43 | 0.0 | 12.9 | 0.00 | 0.00 | 0.00 | 76 | 1010.7 |
| 20260905072835 | 23 | 27 | 0.0 | 6.4 | 0.00 | 0.00 | 0.00 | 77 | 1010.6 |
| 20260905072314 | 23 | 360 | 0.0 | 8.0 | 0.00 | 0.00 | 0.00 | 77 | 1010.8 |
| 20260905071817 | 23 | 350 | 0.0 | 8.0 | 0.00 | 0.00 | 0.00 | 77 | 1010.8 |
| 20260905071316 | 23 | 317 | 1.6 | 6.4 | 0.00 | 0.00 | 0.00 | 77 | 1010.7 |
| 20260905070816 | 23 | 360 | 1.6 | 8.0 | 0.00 | 0.00 | 0.00 | 78 | 1010.7 |
| 20260905070316 | 23 | 16 | 1.6 | 8.0 | 0.00 | 0.00 | 0.00 | 78 | 1010.6 |
| 20260905065816 | 22 | 10 | 3.2 | 6.4 | 0.00 | 0.00 | 0.00 | 78 | 1010.7 |
| 20260905065313 | 22 | 355 | 1.6 | 4.8 | 0.00 | 0.00 | 0.00 | 78 | 1010.8 |
| 20260905064814 | 22 | 355 | 1.6 | 4.8 | 0.00 | 0.00 | 0.00 | 78 | 1010.7 |
| 20260905064316 | 23 | 350 | 1.6 | 4.8 | 0.00 | 0.00 | 0.00 | 78 | 1010.8 |
| 20260905063837 | 23 | 331 | 1.6 | 4.8 | 0.00 | 0.00 | 0.00 | 78 | 1010.7 |
| 20260905063316 | 23 | 355 | 1.6 | 4.8 | 0.00 | 0.00 | 0.00 | 78 | 1010.7 |
| 20260905062835 | 23 | 342 | 0.0 | 3.2 | 0.00 | 0.00 | 0.00 | 78 | 1010.8 |
| 20260905062314 | 23 | 342 | 0.0 | 6.4 | 0.00 | 0.00 | 0.00 | 78 | 1010.7 |
| 20260905061812 | 23 | 360 | 3.2 | 8.0 | 0.00 | 0.00 | 0.00 | 78 | 1010.7 |
| 20260905061313 | 23 | 337 | 1.6 | 8.0 | 0.00 | 0.00 | 0.00 | 78 | 1010.8 |
| 20260905060833 | 23 | 355 | 1.6 | 9.7 | 0.00 | 0.00 | 0.00 | 78 | 1010.9 |
| 20260905060352 | 23 | 355 | 3.2 | 9.7 | 0.00 | 0.00 | 0.00 | 77 | 1010.9 |
| 20260905055830 | 23 | 332 | 0.0 | 6.4 | 0.00 | 0.00 | 0.00 | 77 | 1010.9 |
| 20260905055332 | 23 | 5 | 3.2 | 6.4 | 0.00 | 0.00 | 0.00 | 77 | 1010.9 |
| 20260905054813 | 23 | 341 | 0.0 | 3.2 | 0.00 | 0.00 | 0.00 | 77 | 1011.0 |
| 20260905054312 | 23 | 306 | 0.0 | 1.6 | 0.00 | 0.00 | 0.00 | 77 | 1011.2 |
| 20260905053812 | 23 | 333 | 0.0 | 1.6 | 0.00 | 0.00 | 0.00 | 77 | 1011.2 |
| 20260905053312 | 23 | 360 | 0.0 | 1.6 | 0.00 | 0.00 | 0.00 | 77 | 1011.1 |
| 20260905052812 | 23 | 360 | 0.0 | 1.6 | 0.00 | 0.00 | 0.00 | 78 | 1011.2 |
| 20260905052333 | 23 | 344 | 0.0 | 0.0 | 0.00 | 0.00 | 0.00 | 78 | 1011.3 |
| 20260905051814 | 23 | 344 | 0.0 | 0.0 | 0.00 | 0.00 | 0.00 | 78 | 1011.3 |
| 20260905051334 | 23 | 344 | 0.0 | 0.0 | 0.00 | 0.00 | 0.00 | 78 | 1011.4 |
| 20260905050852 | 23 | 344 | 0.0 | 0.0 | 0.00 | 0.00 | 0.00 | 78 | 1011.4 |
| 20260905050327 | 23 | 344 | 0.0 | 4.8 | 0.00 | 0.00 | 0.00 | 78 | 1011.5 |
| 20260905045828 | 23 | 344 | 0.0 | 6.4 | 0.00 | 0.00 | 0.00 | 78 | 1011.5 |
| 20260905045349 | 23 | 360 | 0.0 | 8.0 | 0.00 | 0.00 | 0.00 | 78 | 1011.5 |
| 20260905044830 | 23 | 343 | 3.2 | 8.0 | 0.00 | 0.00 | 0.00 | 78 | 1011.5 |
| 20260905044352 | 23 | 335 | 1.6 | 6.4 | 0.00 | 0.00 | 0.00 | 78 | 1011.4 |
| 20260905043832 | 23 | 302 | 0.0 | 3.2 | 0.00 | 0.00 | 0.00 | 78 | 1011.4 |
| 20260905043334 | 23 | 320 | 0.0 | 3.2 | 0.00 | 0.00 | 0.00 | 78 | 1011.4 |
| 20260905042834 | 23 | 276 | 0.0 | 0.0 | 0.00 | 0.00 | 0.00 | 78 | 1011.4 |
| 20260905042313 | 23 | 276 | 0.0 | 0.0 | 0.00 | 0.00 | 0.00 | 78 | 1011.3 |
| 20260905041812 | 23 | 276 | 0.0 | 1.6 | 0.00 | 0.00 | 0.00 | 78 | 1011.4 |
| 20260905041332 | 23 | 21 | 0.0 | 0.0 | 0.00 | 0.00 | 0.00 | 78 | 1011.4 |
| 20260905040812 | 23 | 21 | 0.0 | 0.0 | 0.00 | 0.00 | 0.00 | 78 | 1011.4 |
| 20260905040331 | 23 | 21 | 0.0 | 0.0 | 0.00 | 0.00 | 0.00 | 78 | 1011.5 |
| 20260905035846 | 23 | 21 | 0.0 | 0.0 | 0.00 | 0.00 | 0.00 | 78 | 1011.5 |
| 20260905035325 | 23 | 21 | 0.0 | 0.0 | 0.00 | 0.00 | 0.00 | 78 | 1011.6 |
| 20260905034824 | 23 | 21 | 0.0 | 0.0 | 0.00 | 0.00 | 0.00 | 78 | 1011.6 |
| 20260905034328 | 23 | 21 | 0.0 | 0.0 | 0.00 | 0.00 | 0.00 | 78 | 1011.5 |
| 20260905033850 | 23 | 21 | 0.0 | 0.0 | 0.00 | 0.00 | 0.00 | 78 | 1011.4 |
| 20260905033329 | 23 | 21 | 0.0 | 0.0 | 0.00 | 0.00 | 0.00 | 78 | 1011.5 |
| 20260905032830 | 23 | 21 | 0.0 | 0.0 | 0.00 | 0.00 | 0.00 | 78 | 1011.4 |
| 20260905032331 | 23 | 21 | 0.0 | 0.0 | 0.00 | 0.00 | 0.00 | 78 | 1011.3 |
| 20260905031830 | 23 | 21 | 0.0 | 0.0 | 0.00 | 0.00 | 0.00 | 78 | 1011.3 |
| 20260905031314 | 24 | 21 | 0.0 | 0.0 | 0.00 | 0.00 | 0.00 | 78 | 1011.3 |
| 20260905030814 | 24 | 21 | 0.0 | 0.0 | 0.00 | 0.00 | 0.00 | 77 | 1011.3 |
| 20260905030314 | 24 | 21 | 0.0 | 0.0 | 0.00 | 0.00 | 0.00 | 77 | 1011.3 |
| 20260905025836 | 24 | 20 | 0.0 | 0.0 | 0.00 | 0.00 | 0.00 | 77 | 1011.2 |
| 20260905025316 | 24 | 20 | 0.0 | 0.0 | 0.00 | 0.00 | 0.00 | 77 | 1011.2 |
| 20260905024818 | 24 | 20 | 0.0 | 1.6 | 0.00 | 0.00 | 0.00 | 77 | 1011.1 |
| 20260905024318 | 25 | 20 | 0.0 | 3.2 | 0.00 | 0.00 | 0.00 | 77 | 1011.2 |
| 20260905023820 | 25 | 19 | 0.0 | 4.8 | 0.00 | 0.00 | 0.00 | 77 | 1011.2 |
| 20260905023321 | 25 | 346 | 1.6 | 4.8 | 0.00 | 0.00 | 0.00 | 76 | 1011.2 |